Вернуться в каталог

DELTA 1 DEB

АктивенUNKNOWN
NORAD 7192·DEBRIS·🇺🇸 United States

Запущен Nov 6, 1973 с Vandenberg Space Force Base

Loading…

Ближайшие Пролёты (ближайшие 24 часа)

TLE

СвежийSource: Space-Track

Эпоха: Sep 14, 2026, 06:59 UTC

1 07192U 73086FA  26257.29132523 -.00000030  00000-0  64544-4 0  9993
2 07192 102.2131  22.8238 0442036 102.3476 291.5457 11.59925581237458

Отслеживайте DELTA 1 DEB в реальном времени с AllMySat

Download on the App Store